Regional Weather Roundup
Issued by NWS

Home | Current Version | Previous Version | Graphics & Text | Print | Product List | Glossary Off
Versions: 1 2 3 4 5 6 7 8 9 10 11 12 13 14 15 16 17 18 19 20 21 22 23 24 25 26 27 28 29 30 31 32 33 34 35 36 37 38 39 40 41 42 43 44 45 46 47 48 49 50

000
ASUS43 KMPX 271101
RWRMN
WEATHER ROUNDUP FOR MINNESOTA
NATIONAL WEATHER SERVICE TWIN CITIES/CHANHASSEN MN
500 AM CST FRI FEB 27 2015


NOTE: "FAIR" INDICATES FEW OR NO CLOUDS BELOW 12,000 FEET WITH NO
SIGNIFICANT WEATHER AND/OR OBSTRUCTIONS TO VISIBILITY. N/A MEANS
CURRENT SKY AND/OR WEATHER CONDITIONS ARE NOT AVAILABLE.

MNZ060>063-068>070-271200-
   Twin Cities Metro

CITY           SKY/WX    TMP DP  RH WIND       PRES   REMARKS
TWIN CITIES    CLEAR     -3  -9  75 SW6       30.52R WCI -15
ST PAUL        CLEAR     -3 -10  72 SW3       30.54R
CRYSTAL        CLEAR     -2  -9  72 W5        30.50S WCI -12
BLAINE         CLEAR     -2  -8  78 SW3       30.49S
EDEN PRAIRIE   CLEAR     -9 -13  83 W5        30.51R WCI -20
SOUTH ST PAUL  CLEAR     -3  -9  77 CALM      30.52R
LAKE ELMO      FAIR      -8 -11  84 CALM      30.51R
$$
MNZ001>005-007-008-013>017-022>024-027-028-271200-
   Northwest Minnesota

CITY           SKY/WX    TMP DP  RH WIND       PRES   REMARKS
BEMIDJI        MOCLDY   -11 -16  81 CALM      30.39S
HALLOCK        MOCLDY   -15 -20  76 S8        30.41F WCI -32
ROSEAU         PTCLDY    -9 -17  70 SW6       30.38S WCI -23
WARROAD        MOCLDY    -9 -15  77 SW8       30.37S WCI -26
THIEF RVR FALL PTCLDY   -15 -27  53 SW5       30.40F WCI -27
CROOKSTON      PTCLDY   -15 -18  84 S5        30.46S WCI -27
FOSSTON        PTCLDY   -18 -24  76 S7        30.41F WCI -35
DETROIT LAKES  PTCLDY   -11 -15  84 S3        30.43S
MOORHEAD       PTCLDY    -8 -11  84 SW5       30.49S WCI -19
PARK RAPIDS    PTCLDY   -12 -17  78 W3        30.40R
MAHNOMEN       FAIR     -13 -17  80 S7        30.42F WCI -29
$$
MNZ006-009>011-018-025>026-271200-
   North Central Minnesota

CITY           SKY/WX    TMP DP  RH WIND       PRES   REMARKS
BAUDETTE       PTCLDY   -13 -17  82 SW5       30.35S WCI -25
FLAG ISLAND    PTCLDY   -13 -17  84 CALM      30.35R
INTL FALLS     PTCLDY   -18 -22  82 SW3       30.36S
WASKISH        MOCLDY    -9 -15  77 SW6       30.38F WCI -23
BIG FORK       FAIR     -22 -27  76 CALM      30.37S
LONGVILLE      MOCLDY   -20 -26  76 CALM      30.41S
GRAND RAPIDS   MOCLDY    -9 -15  77 CALM      30.36S
CRANE LAKE     MOCLDY   -27 -33  75 CALM      30.39S
ORR            MOCLDY   -15 -20  76 CALM      30.33R
COOK           MOCLDY   -18 -26  69 CALM      30.36S
WALKER         FAIR     -13 -18  79 SW3       30.40R
$$
MNZ012-019>021-037-271200-
   Northeast Minnesota

CITY           SKY/WX    TMP DP  RH WIND       PRES   REMARKS
DULUTH         PTCLDY    -9 -15  75 W7        30.36R WCI -24
ELY            MOCLDY   -17 -20  83 CALM      30.33F
HIBBING        PTCLDY   -21 -26  77 CALM      30.37R
EVELETH        PTCLDY   -15 -20  76 CALM      30.37S
DULUTH HARBOR  PTCLDY    -6 -13  71 CALM      30.48R
TWO HARBORS    PTCLDY    -8 -15  71 CALM      30.36S
SILVER BAY     CLEAR     -8 -15  71 CALM      30.36R
GRAND MARAIS     N/A     -1 -12  59 N5        30.39R WCI -11
G MARAIS ARPRT PTCLDY    -9 -17  70 CALM      30.26R
$$
MNZ029>031-032-039>041-046>048-054>057-064-271200-
   West Central Minnesota

CITY           SKY/WX    TMP DP  RH WIND       PRES   REMARKS
FERGUS FALLS   CLEAR     -9 -17  70 SW3       30.52S
WHEATON        CLEAR     -9 -15  77 W5        30.53R WCI -21
MORRIS         CLEAR     -9 -15  77 W3        30.49R
ALEXANDRIA     CLEAR     -8 -16  67 W3        30.45R
ELBOW LAKE     FAIR     -12 -16  84 SW3       30.48R
WADENA         PTCLDY   -13 -17  84 SW5       30.43S WCI -25
GLENWOOD       CLEAR    -11 -17  77 W6        30.47S WCI -25
APPLETON       CLEAR    -11 -17  77 W6        30.52S WCI -25
BENSON         FAIR     -13 -18  77 CALM      30.50R
ORTONVILLE     CLEAR     -8 -15  71 W5        30.50S WCI -19
MADISON        CLEAR     -9 -15  77 W3        30.53S
WILLMAR        FAIR     -11 -18  70 W6        30.51R WCI -25
$$
MNZ033>034-036-042>043-049>051-058-059-271200-
   Central Minnesota

CITY           SKY/WX    TMP DP  RH WIND       PRES   REMARKS
ST CLOUD       CLEAR     -6 -11  79 W5        30.48S WCI -17
SAUK CENTRE    FAIR      -8 -13  80 CALM      30.47S
PAYNESVILLE    CLEAR    -12 -16  85 SW6       30.49R WCI -26
AITKIN         PTCLDY    -8 -15  71 CALM      30.42R
PINE RIVER     PTCLDY   -18 -24  76 CALM      30.44S
BRAINERD       PTCLDY   -14 -18  82 CALM      30.44R
STAPLES        CLEAR    -11 -15  84 W3        30.44R
LONG PRAIRIE   FAIR      -8 -13  77 CALM      30.46R
LITTLE FALLS   CLEAR    -13 -18  77 CALM      30.48R
LITCHFIELD     CLEAR     -8 -11  84 CALM      30.50R
BUFFALO        CLEAR     -4  -9  77 SW3       30.51S
MAPLE LAKE     CLEAR     -3  -7  82 W3        30.50S
$$
MNZ037-044-045-052-053-271200-
   East Central Minnesota

CITY           SKY/WX    TMP DP  RH WIND       PRES   REMARKS
PRINCETON      CLEAR     -9 -17  70 CALM      30.48R
MORA           CLEAR    -15 -22  70 CALM      30.48S
CAMBRIDGE      CLEAR     -9 -17  70 CALM      30.47R
RUSH CITY      PTCLDY    -8 -13  78 CALM      30.48S
MOOSE LAKE     PTCLDY    -8 -13  77 CALM      30.42S
HINCKLEY       FAIR     -13 -17  84 CALM      30.46R
CLOQUET        PTCLDY    -9 -15  77 W6        30.39R WCI -23
MCGREGOR       MOCLDY    -8 -13  77 CALM      30.43R
$$
MNZ071>073-080-081-089-090-097-098-271200-
   Southwest Minnesota

CITY           SKY/WX    TMP DP  RH WIND       PRES   REMARKS
MONTEVIDEO     CLEAR     -9 -13  84 W6        30.53S WCI -23
GRANITE FALLS  CLEAR    -13 -18  77 SW6       30.55R WCI -27
CANBY          CLEAR     -8 -13  77 SW7       30.53S WCI -22
MARSHALL       CLEAR     -8 -15  71 W7        30.52S WCI -22
REDWOOD FALLS  CLEAR     -9 -14  78 W7        30.53S WCI -24
OLIVIA         CLEAR    -11 -17  77 W7        30.52R WCI -26
PIPESTONE      PTCLDY   -15 -18  84 CALM      30.47S
WINDOM         CLEAR    -15 -18  84 CALM      30.49S
WORTHINGTON    CLEAR     19 -26  12 W8        30.50S WCI   9
JACKSON        CLEAR    -11 -18  70 W7        30.49S WCI -26
TRACY          CLEAR     -6 -12  75 W7        30.50S WCI -20
SLAYTON        CLEAR    -10 -16  74 CALM      30.48S
$$
MNZ065>067-074>077-082>085-091>093-271200-
   South Central Minnesota

CITY           SKY/WX    TMP DP  RH WIND       PRES   REMARKS
MANKATO        CLEAR     -9 -18  64 W7        30.51S WCI -24
NEW ULM        CLEAR    -17 -20  83 W6        30.53S WCI -31
FAIRMONT       PTCLDY    -8 -18  59 W6        30.49R WCI -21
GLENCOE        CLEAR     -8 -12  82 W5        30.51R WCI -19
FARIBAULT      PTCLDY   -15 -18  84 CALM      30.51R
OWATONNA       PTCLDY   -17 -22  76 SW3       30.50R
WASECA         PTCLDY   -17 -22  76 SW3       30.52R
ALBERT LEA     PTCLDY   -11 -15  84 CALM      30.49R
$$
MNZ078>079-086>088-094>096-271200-
   Southeast Minnesota

CITY           SKY/WX    TMP DP  RH WIND       PRES   REMARKS
ROCHESTER      PTCLDY   -13 -17  82 W12       30.47R WCI -33
RED WING       CLEAR    -13 -18  77 CALM      30.52R
STANTON        CLEAR     -9 -14  77 S3        30.51R
DODGE CENTER   PTCLDY   -15 -18  84 W3        30.46R
WINONA         CLEAR     -9 -15  77 CALM      30.55R
AUSTIN         PTCLDY   -11 -15  84 CALM      30.49R
PRESTON        PTCLDY   -10 -15  78 W7        30.48R WCI -24
$$
ABBREVIATIONS USED IN REMARKS
   TC - TEMPERATURES IN CELSIUS
  WCI - WIND CHILL INDEX
   HX - HEAT INDEX
  VSB - VISIBILITY
$$


USA.gov is the U.S. government's official web portal to all federal, state and local government web resources and services.